Regional Weather Roundup
Issued by NWS

Home | Current Version | Previous Version | Text Only | Print | Product List | Glossary On
Versions: 1 2 3 4 5 6 7 8 9 10 11 12 13 14 15 16 17 18 19 20 21 22 23 24 25 26 27 28 29 30 31 32 33 34 35 36 37 38 39 40 41 42 43 44 45 46 47 48 49 50
000
ASUS46 KSEW 261110
RWRWA

WASHINGTON REGIONAL WEATHER ROUNDUP
NATIONAL WEATHER SERVICE SEATTLE WA
400 AM PDT MON JUN 26 2017

NOTE:"FAIR" INDICATES FEW OR NO CLOUDS BELOW 12,000 FEET WITH NO
SIGNIFICANT WEATHER AND/OR OBSTRUCTIONS TO VISIBILITY.

WAZ507-509-555>559-261200-
SEATTLE, TACOMA, EVERETT, AND VICINITY

CITY           SKY/WX    TMP DP  RH WIND       PRES   REMARKS
EVERETT        MOCLDY    62  55  77 S8        29.95R
BOEING FIELD   MOCLDY    60  58  92 S9        29.94R
RENTON         MOCLDY    62  56  80 S8        29.94R
SEATAC AIRPORT MOCLDY    58  55  90 S9        29.95S
JBLM-MCCHORD   MOCLDY    58  57  99 S3        29.95S
PUYALLUP       FAIR      59  57  94 CALM      29.96R
BREMERTON      MOCLDY    56  54  93 SW5       29.94S
JBLM-FT LEWIS  MOCLDY    58  58  99 S5        29.94S FOG
TACOMA NARROWS CLOUDY    58  55  90 S7        29.95S
$$

WAZ001-503-506-510-514-515-261200-
NORTH INTERIOR

CITY           SKY/WX    TMP DP  RH WIND       PRES   REMARKS
BELLINGHAM     PTCLDY    66  48  52 S7        29.87R
FRIDAY HARBOR  PTCLDY    53  50  89 CALM      29.88R
EASTSOUND      PTCLDY    59  50  72 S10G17    29.87R
PORT ANGELES   MOCLDY    56  49  77 W16G22    29.93R
EDIZ HOOK      FAIR      55  49  79 W25G32    29.92S
PORT TOWNSEND    N/A     55  52  88 CALM      29.93R
NAS WHIDBEY    MOCLDY    58  47  66 SW15G25   29.95R
ARLINGTON      MOCLDY    60  50  69 CALM      29.94R
BURLINGTON     CLEAR     61  50  67 S13G18    29.92R
$$

WAZ020-022-039-040-504-511-512-261200-
SOUTHWEST INTERIOR

CITY           SKY/WX    TMP DP  RH WIND       PRES   REMARKS
SHELTON        NOT AVBL
OLYMPIA        MOCLDY    59  56  89 S8        29.94S
CHEHALIS       CLOUDY    61  57  88 CALM      29.96F
KELSO          CLOUDY    59  55  87 W6        29.98R
VANCOUVER      MOCLDY    60  55  83 VRB5      29.95R
SCAPPOOSE, OR  MOCLDY    58  54  86 N9        29.95R
PORTLAND, OR   MOCLDY    60  53  77 NW7       29.96R
$$

WAZ021-516-517-261200-
WASHINGTON COAST

CITY           SKY/WX    TMP DP  RH WIND       PRES   REMARKS
FORKS          CLOUDY    56  52  86 W3        29.99S
HOQUIAM        CLOUDY    58  54  86 NW8       29.97F
ASTORIA, OR    CLOUDY    56  54  93 S3        29.97F
$$

WAZ019-023-024-040-567>569-261200-
CASCADE MOUNTAINS AND COLUMBIA GORGE

CITY           SKY/WX    TMP DP  RH WIND       PRES   REMARKS
STAMPEDE PASS  MOCLDY    60  48  64 SW7       30.02F
TROUTDALE, OR  MOCLDY    62  55  77 W5        29.95R
HOOD RIVER, OR CLOUDY    70  54  56 W5        29.86S
THE DALLES, OR CLOUDY    77  55  46 NW18G26   29.79F
$$

WAZ026-027-041>044-520-521-261200-
EAST SLOPES

CITY           SKY/WX    TMP DP  RH WIND       PRES   REMARKS
OMAK           CLOUDY    64  49  57 CALM      29.83R
WENATCHEE      MOCLDY    72  48  42 W6        29.82S
ELLENSBURG     MOCLDY    67  50  54 NE5       29.87R
YAKIMA         MOCLDY    69  55  60 SW3       29.83S
SUNNYSIDE ARPT CLOUDY    66  57  72 E3        29.78F
YAKIMA TC      NOT AVBL
$$

WAZ028-034-035-261200-
COLUMBIA BASIN

CITY           SKY/WX    TMP DP  RH WIND       PRES   REMARKS
EPHRATA        MOCLDY    69  45  41 N6        29.81R
MOSES LAKE     MOCLDY    64  49  57 N3        29.81S
PASCO          CLOUDY    67  58  72 CALM      29.78S
RICHLAND ARPT  CLOUDY    71  55  58 N7        29.77F
HERMISTON, OR  CLOUDY    70  53  54 SE6       29.78F
$$

WAZ036>038-261200-
NORTHEAST WASHINGTON

CITY           SKY/WX    TMP DP  RH WIND       PRES   REMARKS
SPOKANE GEIGER MOCLDY    67  52  58 NE5       29.89S
SPOKANE FELTS  PTCLDY    61  53  75 N3        29.88S
FAIRCHILD AFB  PTCLDY    65  49  56 NE3       29.89S
COEURDALENE,ID PTCLDY    59  54  83 E5        29.91S
DEER PARK      PTCLDY    52  47  83 NW5       29.89S
$$

WAZ029>033-261200-
SOUTHEAST WASHINGTON

CITY           SKY/WX    TMP DP  RH WIND       PRES   REMARKS
PULLMAN        MOCLDY    69  45  41 CALM      29.92R
LEWISTON, ID   MOCLDY    67  53  61 CALM      29.85R
WALLA WALLA    MOCLDY    73  53  49 E8        29.82S
PENDLETON, OR  CLOUDY    68  54  60 E8        29.83F
$$



USA.gov is the U.S. government's official web portal to all federal, state and local government web resources and services.